sat.trackr.live / text

‹ back to catalog

STARLINK-2756

NORAD 48683 · 2021-044AX

PAYLOAD ACTIVE UNKNOWN

§ Identity

Operator
Country
US
Launch date
2021-05-26
Launch site
AFETR
Launch vehicle
Mass (kg)
RCS (m²)

Purposes: comms

External: N2YO · Heavens-Above · Gunter

§ Orbital elements

Epoch: 2026-09-09T09:34:05.522592Z

Period
94.01 min
Inclination
53.1597°
Eccentricity
0.0001139
Mean motion
15.31700691 rev/d
Perigee alt
470.0 km
Apogee alt
471.5 km
Semi-major
6,848.9 km
B*
8.2178e-6
RAAN
290.2669°
Arg perigee
75.8361°
Mean anomaly
284.2767°
Rev number
29,265

§ Raw data

STARLINK-27561 48683U 21044AX  26252.39867503 -.00000110  00000+0  82178-5 0  99912 48683  53.1597 290.2669 0001139  75.8361 284.2767 15.31700691292652

JSON: /api/v1/satellites/48683 · /tle

For live sub-satellite position, see the globe view (requires WebGL).

§ Visibility from observer

Set your observer location to see the next 7 days of passes ≥ 10°. The values pass through the URL so the page stays shareable.

No JS? Fill the form by hand. The geolocation button needs JavaScript.